Location: Cerroniocc
(13.7547°S, 72.0222°W)
Time: 20:06:05
(UTC+00:00)

NOAA 11 - Pass Details

Date: 05 July 2020
Orbit: 834 x 849 km, 98.4° (Epoch: 11 August)

Event Time Altitude Azimuth Distance (km) Brightness Sun altitude
Rises 23:25:11 0° 164° (SSE) 3,415 7.0 -12.6°
Reaches altitude 10° 23:27:35 10° 161° (SSE) 2,473 6.3 -13.1°
Maximum altitude 23:33:03 68° 78° (ENE) 904 4.1 -14.3°
Drops below altitude 10° 23:38:26 10° 356° (N) 2,442 6.9 -15.6°
Sets 23:40:47 0° 353° (N) 3,369 7.7 -16.1°
